FW8840 Weather Reports


time (UTC)temp
C
wind
direction
speed
KPH
gust
KPH
rain 1hr
cm
rain 24hr
cm
rain mn
cm
humidity
%
barometer
mb
20260506153528 23 179 11.3 16.1 0.00 0.00 0.00 61 1014.1
20260506152529 23 166 11.3 20.9 0.00 0.00 0.00 58 1014.0
20260506151528 23 180 12.9 19.3 0.00 0.00 0.00 57 1014.0
20260506150528 23 159 11.3 20.9 0.00 0.00 0.00 55 1014.0
20260506145528 24 171 12.9 22.5 0.00 0.00 0.00 54 1014.1
20260506144528 24 164 11.3 17.7 0.00 0.00 0.00 52 1014.1
20260506143528 25 177 11.3 22.5 0.00 0.00 0.00 50 1014.2
20260506142549 25 167 9.7 16.1 0.00 0.00 0.00 49 1014.3
20260506141528 25 162 9.7 16.1 0.00 0.00 0.00 49 1014.3
20260506140549 25 178 12.9 22.5 0.00 0.00 0.00 46 1014.4
20260506135528 25 170 12.9 19.3 0.00 0.00 0.00 46 1014.4
20260506134528 25 157 9.7 14.5 0.00 0.00 0.00 46 1014.5
20260506133548 25 191 14.5 24.1 0.00 0.00 0.00 45 1014.5
20260506132528 25 162 12.9 22.5 0.00 0.00 0.00 45 1014.6
20260506131548 25 148 11.3 20.9 0.00 0.00 0.00 45 1014.7
20260506130528 25 138 9.7 24.1 0.00 0.00 0.00 46 1014.8
20260506125548 25 145 11.3 17.7 0.00 0.00 0.00 45 1014.9
20260506124528 25 168 11.3 24.1 0.00 0.00 0.00 46 1015.0
20260506123528 25 175 12.9 22.5 0.00 0.00 0.00 45 1015.0
20260506122528 25 170 11.3 20.9 0.00 0.00 0.00 44 1015.1
20260506121528 25 170 11.3 17.7 0.00 0.00 0.00 45 1015.1
20260506120528 25 186 14.5 24.1 0.00 0.00 0.00 44 1015.1
20260506115528 26 146 11.3 17.7 0.00 0.00 0.00 43 1015.3
20260506114528 25 152 9.7 17.7 0.00 0.00 0.00 46 1015.5
20260506113528 25 163 9.7 14.5 0.00 0.00 0.00 47 1015.6
20260506112528 25 157 11.3 14.5 0.00 0.00 0.00 50 1015.6
20260506111528 25 163 9.7 17.7 0.00 0.00 0.00 53 1015.6
20260506110528 25 177 9.7 17.7 0.00 0.00 0.00 53 1015.7
20260506105529 25 166 11.3 17.7 0.00 0.00 0.00 52 1015.7
20260506104528 26 195 8.0 14.5 0.00 0.00 0.00 51 1015.7
20260506103528 26 209 4.8 11.3 0.00 0.00 0.00 47 1015.8
20260506102528 26 237 4.8 9.7 0.00 0.00 0.00 44 1015.8
20260506101528 26 255 4.8 8.0 0.00 0.00 0.00 44 1016.0
20260506100528 25 278 6.4 9.7 0.00 0.00 0.00 45 1016.0
20260506095528 24 275 6.4 11.3 0.00 0.00 0.00 48 1016.0
20260506094528 24 303 9.7 11.3 0.00 0.00 0.00 48 1016.1
20260506093548 24 296 8.0 12.9 0.00 0.00 0.00 47 1016.2
20260506092548 24 265 8.0 11.3 0.00 0.00 0.00 47 1016.1
20260506091528 24 310 6.4 9.7 0.00 0.00 0.00 48 1016.2
20260506090528 24 308 6.4 11.3 0.00 0.00 0.00 48 1016.1
20260506085528 23 357 6.4 9.7 0.00 0.00 0.00 49 1016.1
20260506084608 24 291 6.4 11.3 0.00 0.00 0.00 50 1016.2
20260506083528 24 313 4.8 8.0 0.00 0.00 0.00 49 1016.0
20260506082528 23 337 6.4 11.3 0.00 0.00 0.00 49 1016.0
20260506081528 23 281 4.8 8.0 0.00 0.00 0.00 49 1016.0
20260506080528 23 11 4.8 6.4 0.00 0.00 0.00 48 1016.0
20260506073528 22 301 4.8 6.4 0.00 0.00 0.00 49 1015.9
20260506072527 22 324 3.2 6.4 0.00 0.00 0.00 51 1015.9
20260506071527 21 286 1.6 6.4 0.00 0.00 0.00 51 1015.9
20260506070528 21 279 1.6 3.2 0.00 0.00 0.00 54 1016.0
20260506061547 20 31 1.6 3.2 0.00 0.00 0.00 62 1016.3
20260506060547 20 202 1.6 3.2 0.00 0.00 0.00 62 1016.3
20260506050527 17 202 0.0 1.6 0.00 0.00 0.00 73 1016.2
20260506044527 13 202 0.0 1.6 0.00 0.00 0.00 83 1016.0
20260506043527 12 202 1.6 3.2 0.00 0.00 0.00 86 1015.8
20260506042526 11 202 1.6 3.2 0.00 0.00 0.00 89 1015.8
20260506041526 10 202 4.8 6.4 0.00 0.00 0.00 91 1015.6
20260506040526 10 202 4.8 6.4 0.00 0.00 0.00 92 1015.6
20260506035626 10 202 3.2 6.4 0.00 0.00 0.00 93 1015.5
20260506034606 10 202 4.8 8.0 0.00 0.00 0.00 94 1015.5
20260506033546 9 202 4.8 6.4 0.00 0.00 0.00 94 1015.5
20260506032526 10 187 4.8 6.4 0.00 0.00 0.00 94 1015.5
20260506031526 10 202 3.2 6.4 0.00 0.00 0.00 94 1015.4
20260506030526 10 202 3.2 6.4 0.00 0.00 0.00 94 1015.4
20260506025526 10 202 3.2 6.4 0.00 0.00 0.00 94 1015.4
20260506024526 10 202 1.6 3.2 0.00 0.00 0.00 94 1015.4
20260506023526 10 202 4.8 6.4 0.00 0.00 0.00 93 1015.5
20260506022526 10 202 3.2 6.4 0.00 0.00 0.00 93 1015.5
20260506021526 10 202 3.2 6.4 0.00 0.00 0.00 92 1015.5
20260506020525 11 202 3.2 6.4 0.00 0.00 0.00 91 1015.4
20260506015525 11 202 4.8 6.4 0.00 0.00 0.00 91 1015.3
20260506014525 11 202 4.8 6.4 0.00 0.00 0.00 90 1015.4
20260506013525 11 202 8.0 11.3 0.00 0.00 0.00 90 1015.4
20260506012525 11 202 6.4 8.0 0.00 0.00 0.00 88 1015.4
20260506011525 12 202 4.8 6.4 0.00 0.00 0.00 87 1015.4
20260506010525 12 202 6.4 6.4 0.00 0.00 0.00 85 1015.4
20260506005605 13 270 6.4 6.4 0.00 0.00 0.00 83 1015.4
20260506004525 14 270 3.2 6.4 0.00 0.00 0.00 80 1015.3
20260506003525 14 263 4.8 8.0 0.00 0.00 0.00 81 1015.2
20260506002524 13 278 6.4 9.7 0.00 0.00 0.00 82 1015.2
20260506001525 13 256 3.2 6.4 0.00 0.00 0.00 81 1015.2
20260506000524 12 248 4.8 6.4 0.00 0.00 0.00 80 1015.1
20260505235525 12 206 3.2 6.4 0.00 0.00 0.00 76 1015.1
20260505234525 12 202 4.8 6.4 0.00 0.00 0.00 75 1015.0
20260505233525 13 202 3.2 6.4 0.00 0.00 0.00 68 1015.0
20260505232544 13 202 1.6 6.4 0.00 0.00 0.00 63 1014.9
20260505231524 14 202 0.0 0.0 0.00 0.00 0.00 61 1014.9
20260505230524 15 202 0.0 0.0 0.00 0.00 0.00 58 1014.9
20260505225524 15 292 0.0 0.0 0.00 0.00 0.00 55 1014.9
20260505224524 15 292 0.0 0.0 0.00 0.00 0.00 55 1014.9
20260505223524 15 102 1.6 4.8 0.00 0.00 0.00 57 1014.9
20260505222604 15 102 1.6 3.2 0.00 0.00 0.00 57 1014.9
20260505221524 15 102 1.6 8.0 0.00 0.00 0.00 57 1014.9
20260505220524 16 180 3.2 6.4 0.00 0.00 0.00 57 1014.8
20260505215524 17 180 4.8 6.4 0.00 0.00 0.00 56 1014.8
20260505214524 17 150 6.4 8.0 0.00 0.00 0.00 51 1014.7
20260505213523 18 120 8.0 11.3 0.00 0.00 0.00 47 1014.6
20260505212523 18 111 8.0 14.5 0.00 0.00 0.00 47 1014.6
20260505211523 18 108 9.7 14.5 0.00 0.00 0.00 46 1014.5
20260505210523 18 119 9.7 14.5 0.00 0.00 0.00 47 1014.5
20260505205543 18 120 6.4 11.3 0.00 0.00 0.00 47 1014.6
20260505204524 18 105 8.0 12.9 0.00 0.00 0.00 47 1014.5
20260505203523 18 112 8.0 11.3 0.00 0.00 0.00 47 1014.5
20260505202523 18 117 8.0 14.5 0.00 0.00 0.00 47 1014.4
20260505201523 18 114 9.7 11.3 0.00 0.00 0.00 47 1014.4
20260505200543 18 112 8.0 14.5 0.00 0.00 0.00 47 1014.2
20260505195543 18 112 9.7 14.5 0.00 0.00 0.00 47 1014.2
20260505194523 18 102 9.7 16.1 0.00 0.00 0.00 47 1014.1
20260505193544 18 114 11.3 17.7 0.00 0.00 0.00 48 1014.2
20260505192523 17 118 8.0 14.5 0.00 0.00 0.00 50 1014.1
20260505191543 16 107 6.4 9.7 0.00 0.00 0.00 53 1014.0
20260505190523 15 105 4.8 11.3 0.00 0.00 0.00 56 1013.8
20260505185543 15 76 4.8 8.0 0.00 0.00 0.00 64 1013.7
20260505184523 15 68 3.2 6.4 0.00 0.00 0.00 66 1013.7
20260505183522 16 90 0.0 0.0 0.00 0.00 0.00 64 1013.6
20260505182522 16 90 0.0 0.0 0.00 0.00 0.00 61 1013.5
20260505181522 18 180 1.6 3.2 0.00 0.00 0.00 58 1013.4
20260505180522 19 102 1.6 4.8 0.00 0.00 0.00 52 1013.3
20260505175522 20 155 6.4 9.7 0.00 0.00 0.00 47 1013.2
20260505174523 20 125 8.0 12.9 0.00 0.00 0.00 43 1013.2
20260505173522 20 113 6.4 11.3 0.00 0.00 0.00 44 1013.2
20260505172521 20 92 6.4 9.7 0.00 0.00 0.00 44 1013.2
20260505171521 21 116 4.8 8.0 0.00 0.00 0.00 45 1013.1
20260505170522 21 121 8.0 11.3 0.00 0.00 0.00 45 1013.0
20260505165521 21 103 4.8 9.7 0.00 0.00 0.00 48 1013.2
20260505164522 21 111 3.2 6.4 0.00 0.00 0.00 50 1013.1
20260505163521 22 163 8.0 14.5 0.00 0.00 0.00 49 1012.9
20260505162521 22 161 9.7 14.5 0.00 0.00 0.00 49 1013.0
20260505161522 23 174 9.7 17.7 0.00 0.00 0.00 46 1013.0
20260505160522 23 185 12.9 20.9 0.00 0.00 0.00 45 1013.1